,,,PA_Meas_PMT16A,,PR_Meas_QMR101_102,,RH_Meas_QMH101,,SR_Meas_QMS101,,TA_Meas_QMH101,,GenWind,,GenWind,
date,time,status,PA,status,PR,status,RH,status,SR,status,TA,status,DirAvg,status,SpdAvg,
2008-08-03, 06:40:04,VALID,1004.79,VALID,0,VALID,90.9439,VALID,50.2815,VALID,24.817,VALID,332,VALID,0.635938,
2008-08-03, 06:41:04,VALID,1004.78,VALID,0,VALID,90.8371,VALID,50.1809,VALID,24.9125,VALID,346,VALID,0.295703,
2008-08-03, 06:42:04,VALID,1004.79,VALID,0,VALID,90.2954,VALID,52.4939,VALID,24.9495,VALID,22,VALID,1.51094,
2008-08-03, 06:43:04,VALID,1004.8,VALID,0,VALID,90.036,VALID,55.4102,VALID,25.0098,VALID,348,VALID,1.23281,
2008-08-03, 06:44:04,VALID,1004.85,VALID,0,VALID,90.0589,VALID,71.098,VALID,25.0274,VALID,357,VALID,0.678516,
2008-08-03, 06:45:04,VALID,1004.86,VALID,0,VALID,90.0818,VALID,54.5051,VALID,25.0663,VALID,349,VALID,0.0796875,
2008-08-03, 06:46:04,VALID,1004.89,VALID,0,VALID,89.8682,VALID,61.5445,VALID,25.0469,VALID,67,VALID,0.613281,
2008-08-03, 06:47:04,VALID,1004.88,VALID,0,VALID,89.8148,VALID,68.0811,VALID,25.1072,VALID,352,VALID,0.844141,
2008-08-03, 06:48:04,VALID,1004.9,VALID,0,VALID,89.9064,VALID,61.1423,VALID,25.1248,VALID,353,VALID,0.193359,
2008-08-03, 06:49:04,VALID,1004.91,VALID,0,VALID,89.3189,VALID,81.8582,VALID,25.1656,VALID,20,VALID,1.41836,
2008-08-03, 06:50:04,VALID,1004.9,VALID,0,VALID,88.9146,VALID,118.564,VALID,25.2221,VALID,23,VALID,1.16562,
2008-08-03, 06:51:04,VALID,1004.91,VALID,0,VALID,88.6171,VALID,62.2485,VALID,25.3214,VALID,358,VALID,0.701953,
2008-08-03, 06:52:04,VALID,1004.93,VALID,0,VALID,88.4492,VALID,61.9468,VALID,25.3584,VALID,14,VALID,0.497266,
2008-08-03, 06:53:04,VALID,1004.93,VALID,0,VALID,88.2738,VALID,65.7682,VALID,25.3993,VALID,326,VALID,0.653125,
2008-08-03, 06:54:04,VALID,1004.96,VALID,0,VALID,88.3806,VALID,142.196,VALID,25.4169,VALID,346,VALID,0.348828,
2008-08-03, 06:55:04,VALID,1005,VALID,0,VALID,87.8694,VALID,143.302,VALID,25.4169,VALID,4,VALID,1.11289,
2008-08-03, 06:56:04,VALID,1005.01,VALID,0,VALID,87.694,VALID,145.313,VALID,25.5357,VALID,46,VALID,0.3625,
2008-08-03, 06:57:04,VALID,1004.97,VALID,0,VALID,88.022,VALID,151.951,VALID,25.6525,VALID,348,VALID,0.397656,
2008-08-03, 06:58:04,VALID,1005.03,VALID,0,VALID,87.3812,VALID,148.029,VALID,25.7694,VALID,348,VALID,0.00351562,
2008-08-03, 06:59:04,VALID,1005,VALID,0,VALID,86.5039,VALID,78.238,VALID,25.8668,VALID,38,VALID,0.324609,
2008-08-03, 07:00:04,VALID,1004.99,VALID,0,VALID,85.4969,VALID,72.6064,VALID,25.9232,VALID,5,VALID,0.765234,
2008-08-03, 07:01:04,VALID,1004.98,VALID,0,VALID,85.2909,VALID,75.2211,VALID,25.9642,VALID,40,VALID,0.148438,
2008-08-03, 07:02:04,VALID,1004.97,VALID,0,VALID,84.1847,VALID,104.887,VALID,25.9817,VALID,44,VALID,0.59375,
2008-08-03, 07:03:04,VALID,1004.93,VALID,0,VALID,84.2534,VALID,175.985,VALID,26.0206,VALID,29,VALID,0.711719,
2008-08-03, 07:04:04,VALID,1004.9,VALID,0,VALID,84.5509,VALID,177.896,VALID,26.1395,VALID,34,VALID,0.260938,
2008-08-03, 07:05:04,VALID,1004.9,VALID,0,VALID,83.4065,VALID,147.023,VALID,26.1765,VALID,7,VALID,0.721875,
2008-08-03, 07:06:04,VALID,1004.9,VALID,0,VALID,83.5744,VALID,179.404,VALID,26.2544,VALID,24,VALID,0.181641,
2008-08-03, 07:07:04,VALID,1004.89,VALID,0,VALID,83.8338,VALID,143.604,VALID,26.3343,VALID,25,VALID,0.937891,
2008-08-03, 07:08:04,VALID,1004.9,VALID,0,VALID,84.2,VALID,105.289,VALID,26.4122,VALID,348,VALID,0.255078,
2008-08-03, 07:09:04,VALID,1004.92,VALID,0,VALID,83.9711,VALID,178.499,VALID,26.4317,VALID,8,VALID,0.166797,
2008-08-03, 07:10:04,VALID,1004.94,VALID,0,VALID,84.7187,VALID,175.281,VALID,26.4707,VALID,39,VALID,0.360938,
2008-08-03, 07:11:04,VALID,1004.92,VALID,0,VALID,84.1542,VALID,186.142,VALID,26.5096,VALID,38,VALID,0.371875,
2008-08-03, 07:12:04,VALID,1004.95,VALID,0,VALID,83.7346,VALID,180.41,VALID,26.5876,VALID,36,VALID,0.254687,
2008-08-03, 07:13:04,VALID,1004.97,VALID,0,VALID,82.6131,VALID,130.229,VALID,26.6265,VALID,39,VALID,0.649609,
2008-08-03, 07:14:04,VALID,1004.99,VALID,0,VALID,82.1554,VALID,120.273,VALID,26.648,VALID,13,VALID,0.707812,
2008-08-03, 07:15:04,VALID,1005,VALID,0,VALID,82.8878,VALID,143.805,VALID,26.6265,VALID,79,VALID,0.441016,
2008-08-03, 07:16:04,VALID,1005,VALID,0,VALID,81.7969,VALID,193.383,VALID,26.6265,VALID,60,VALID,0.4375,
2008-08-03, 07:17:04,VALID,1005,VALID,0,VALID,81.2934,VALID,143.906,VALID,26.6675,VALID,41,VALID,1.51133,
2008-08-03, 07:18:04,VALID,1005.04,VALID,0,VALID,81.9113,VALID,145.816,VALID,26.6265,VALID,66,VALID,0.440625,
2008-08-03, 07:19:04,VALID,1005.03,VALID,0,VALID,82.3766,VALID,134.754,VALID,26.646,VALID,48,VALID,0.408984,
2008-08-03, 07:20:04,VALID,1005.03,VALID,0,VALID,82.575,VALID,281.073,VALID,26.648,VALID,42,VALID,0.278125,
2008-08-03, 07:21:04,VALID,1005.03,VALID,0,VALID,82.0562,VALID,288.415,VALID,26.726,VALID,28,VALID,0.319531,
2008-08-03, 07:22:04,VALID,1005.03,VALID,0,VALID,81.1713,VALID,299.577,VALID,26.8234,VALID,89,VALID,0.56875,
2008-08-03, 07:23:04,VALID,1005.02,VALID,0,VALID,80.4084,VALID,301.89,VALID,26.9578,VALID,82,VALID,0.239844,
2008-08-03, 07:24:04,VALID,1005,VALID,0,VALID,79.9125,VALID,301.89,VALID,27.1721,VALID,354,VALID,1.00586,
2008-08-03, 07:25:04,VALID,1005.02,VALID,0,VALID,79.9812,VALID,333.366,VALID,27.2306,VALID,78,VALID,0.347266,
2008-08-03, 07:26:04,VALID,1005.04,VALID,0,VALID,79.7371,VALID,337.389,VALID,27.3865,VALID,65,VALID,0.402734,
2008-08-03, 07:27:04,VALID,1005.04,VALID,0,VALID,77.6849,VALID,349.657,VALID,27.4254,VALID,80,VALID,1.74531,
2008-08-03, 07:28:04,VALID,1005.04,VALID,0,VALID,78.7758,VALID,332.26,VALID,27.3865,VALID,111,VALID,0.507422,
2008-08-03, 07:29:04,VALID,1005.03,VALID,0,VALID,79.0886,VALID,280.168,VALID,27.5229,VALID,34,VALID,0.389062,
2008-08-03, 07:30:04,VALID,1004.98,VALID,0,VALID,79.3251,VALID,234.513,VALID,27.6983,VALID,41,VALID,0.364844,
2008-08-03, 07:31:04,VALID,1004.97,VALID,0,VALID,76.9449,VALID,258.045,VALID,27.6983,VALID,51,VALID,1.06602,
2008-08-03, 07:32:04,VALID,1004.98,VALID,0,VALID,76.4414,VALID,353.881,VALID,27.6398,VALID,29,VALID,1.98633,
2008-08-03, 07:33:04,VALID,1004.96,VALID,0,VALID,77.4179,VALID,277.755,VALID,27.5424,VALID,101,VALID,1.14883,
2008-08-03, 07:34:04,VALID,1004.98,VALID,0,VALID,77.8451,VALID,276.649,VALID,27.525,VALID,80,VALID,0.864844,
2008-08-03, 07:35:04,VALID,1004.99,VALID,0,VALID,77.9214,VALID,272.123,VALID,27.5229,VALID,96,VALID,1.43594,
2008-08-03, 07:36:04,VALID,1005.01,VALID,0,VALID,78.1426,VALID,389.078,VALID,27.5834,VALID,124,VALID,0.734375,
2008-08-03, 07:37:04,VALID,1005.03,VALID,0,VALID,78.3181,VALID,415.928,VALID,27.7394,VALID,151,VALID,0.15,
2008-08-03, 07:38:04,VALID,1005.07,VALID,0,VALID,77.6239,VALID,425.985,VALID,27.7957,VALID,28,VALID,1.02461,
2008-08-03, 07:39:04,VALID,1005.05,VALID,0,VALID,76.2278,VALID,426.89,VALID,27.8347,VALID,70,VALID,1.41172,
2008-08-03, 07:40:04,VALID,1005.06,VALID,0,VALID,76.6321,VALID,438.354,VALID,27.8737,VALID,73,VALID,1.00156,
2008-08-03, 07:41:04,VALID,1005.05,VALID,0,VALID,75.6404,VALID,445.896,VALID,27.9711,VALID,65,VALID,1.31758,
2008-08-03, 07:42:04,VALID,1005.06,VALID,0,VALID,75.5641,VALID,452.634,VALID,28.0275,VALID,102,VALID,1.3707,
2008-08-03, 07:43:04,VALID,1005.12,VALID,0,VALID,75.4115,VALID,473.953,VALID,28.1855,VALID,54,VALID,0.694922,
2008-08-03, 07:44:04,VALID,1005.08,VALID,0,VALID,74.969,VALID,202.232,VALID,28.2635,VALID,98,VALID,1.58867,
2008-08-03, 07:45:04,VALID,1005.08,VALID,0,VALID,75.0987,VALID,187.751,VALID,28.2245,VALID,99,VALID,1.04961,
2008-08-03, 07:46:04,VALID,1005.13,VALID,0,VALID,76.1286,VALID,450.522,VALID,28.1076,VALID,74,VALID,1.4707,
2008-08-03, 07:47:04,VALID,1005.13,VALID,0,VALID,75.709,VALID,374.999,VALID,28.1487,VALID,48,VALID,1.04336,
2008-08-03, 07:48:04,VALID,1005.15,VALID,0,VALID,75.1674,VALID,526.849,VALID,28.2072,VALID,71,VALID,1.96133,
2008-08-03, 07:49:04,VALID,1005.14,VALID,0,VALID,75.5412,VALID,350.261,VALID,28.2072,VALID,37,VALID,1.11953,
2008-08-03, 07:50:04,VALID,1005.15,VALID,0,VALID,74.8775,VALID,535.095,VALID,28.2072,VALID,103,VALID,1.625,
2008-08-03, 07:51:04,VALID,1005.2,VALID,0,VALID,76.0142,VALID,506.536,VALID,28.2072,VALID,94,VALID,0.974609,
2008-08-03, 07:52:04,VALID,1005.2,VALID,0,VALID,74.7783,VALID,337.489,VALID,28.2635,VALID,66,VALID,1.82813,
2008-08-03, 07:53:04,VALID,1005.21,VALID,0,VALID,74.8317,VALID,217.618,VALID,28.3436,VALID,119,VALID,1.27773,
2008-08-03, 07:54:04,VALID,1005.23,VALID,0,VALID,74.3129,VALID,225.864,VALID,28.2656,VALID,62,VALID,1.36797,
2008-08-03, 07:55:04,VALID,1005.29,VALID,0,VALID,74.7707,VALID,445.896,VALID,28.1487,VALID,96,VALID,1.71133,
2008-08-03, 07:56:04,VALID,1005.31,VALID,0,VALID,75.4573,VALID,229.887,VALID,28.0707,VALID,101,VALID,1.63633,
2008-08-03, 07:57:04,VALID,1005.33,VALID,0,VALID,75.976,VALID,274.135,VALID,28.0122,VALID,126,VALID,1.35977,
2008-08-03, 07:58:04,VALID,1005.38,VALID,0,VALID,75.9989,VALID,183.527,VALID,27.9364,VALID,91,VALID,1.53242,
2008-08-03, 07:59:04,VALID,1005.43,VALID,0,VALID,76.182,VALID,186.142,VALID,27.8173,VALID,60,VALID,1.96016,
2008-08-03, 08:00:04,VALID,1005.42,VALID,0,VALID,77.2348,VALID,201.126,VALID,27.7004,VALID,76,VALID,1.55508,
2008-08-03, 08:01:04,VALID,1005.42,VALID,0,VALID,77.5857,VALID,215.607,VALID,27.6419,VALID,95,VALID,1.38047,
2008-08-03, 08:02:04,VALID,1005.41,VALID,0,VALID,76.9067,VALID,224.557,VALID,27.644,VALID,101,VALID,1.52188,
2008-08-03, 08:03:04,VALID,1005.46,VALID,0,VALID,77.6696,VALID,282.984,VALID,27.6029,VALID,123,VALID,1.12891,
2008-08-03, 08:04:04,VALID,1005.44,VALID,0,VALID,78.1197,VALID,406.777,VALID,27.7004,VALID,18,VALID,0.768359,
2008-08-03, 08:05:04,VALID,1005.46,VALID,0,VALID,76.7847,VALID,276.649,VALID,27.8368,VALID,83,VALID,1.0418,
2008-08-03, 08:06:04,VALID,1005.43,VALID,0,VALID,76.8228,VALID,351.669,VALID,27.8953,VALID,100,VALID,0.818359,
2008-08-03, 08:07:04,VALID,1005.45,VALID,0,VALID,76.6016,VALID,522.022,VALID,27.9364,VALID,78,VALID,0.858203,
2008-08-03, 08:08:04,VALID,1005.48,VALID,0,VALID,75.5564,VALID,524.335,VALID,27.9927,VALID,97,VALID,1.6668,
2008-08-03, 08:09:04,VALID,1005.42,VALID,0,VALID,74.9232,VALID,533.486,VALID,28.1076,VALID,117,VALID,1.25156,
2008-08-03, 08:10:04,VALID,1005.48,VALID,0,VALID,74.5494,VALID,399.335,VALID,28.1466,VALID,94,VALID,1.66992,
2008-08-03, 08:11:04,VALID,1005.44,VALID,0,VALID,76.182,VALID,419.247,VALID,28.2245,VALID,87,VALID,0.823438,
2008-08-03, 08:12:04,VALID,1005.47,VALID,0,VALID,73.7865,VALID,368.764,VALID,28.361,VALID,66,VALID,1.82344,
2008-08-03, 08:13:04,VALID,1005.47,VALID,0,VALID,73.9391,VALID,339.299,VALID,28.2635,VALID,106,VALID,1.57422,
2008-08-03, 08:14:04,VALID,1005.44,VALID,0,VALID,75.4115,VALID,290.526,VALID,28.2245,VALID,112,VALID,1.73438,
2008-08-03, 08:15:04,VALID,1005.44,VALID,0,VALID,74.8317,VALID,305.007,VALID,28.2245,VALID,102,VALID,1.73164,
2008-08-03, 08:16:04,VALID,1005.43,VALID,0,VALID,75.4573,VALID,325.221,VALID,28.1682,VALID,42,VALID,1.20781,
2008-08-03, 08:17:04,VALID,1005.46,VALID,0,VALID,75.3886,VALID,448.611,VALID,28.1855,VALID,61,VALID,1.16758,
2008-08-03, 08:18:04,VALID,1005.45,VALID,0,VALID,74.908,VALID,494.166,VALID,28.2851,VALID,137,VALID,1.35195,
2008-08-03, 08:19:04,VALID,1005.47,VALID,0,VALID,75.8158,VALID,447.103,VALID,28.3025,VALID,83,VALID,0.882422,
2008-08-03, 08:20:04,VALID,1005.49,VALID,0,VALID,74.5342,VALID,264.481,VALID,28.4194,VALID,140,VALID,1.63906,
2008-08-03, 08:21:04,VALID,1005.5,VALID,0,VALID,74.7554,VALID,242.156,VALID,28.3826,VALID,128,VALID,2.53125,
2008-08-03, 08:22:04,VALID,1005.56,VALID,0,VALID,75.2894,VALID,214.903,VALID,28.166,VALID,105,VALID,2.89336,
2008-08-03, 08:23:04,VALID,1005.53,VALID,0,VALID,74.9843,VALID,217.518,VALID,28.0686,VALID,117,VALID,1.3207,
2008-08-03, 08:24:04,VALID,1005.56,VALID,0,VALID,75.5183,VALID,231.898,VALID,28.0317,VALID,123,VALID,1.48203,
2008-08-03, 08:25:04,VALID,1005.59,VALID,0,VALID,76.2507,VALID,239.742,VALID,28.0122,VALID,96,VALID,0.962891,
2008-08-03, 08:26:04,VALID,1005.55,VALID,0,VALID,76.3575,VALID,238.938,VALID,27.9927,VALID,90,VALID,1.13008,
2008-08-03, 08:27:04,VALID,1005.57,VALID,0,VALID,77.0135,VALID,255.028,VALID,27.9927,VALID,98,VALID,0.716797,
2008-08-03, 08:28:04,VALID,1005.58,VALID,0,VALID,76.2735,VALID,262.067,VALID,27.9733,VALID,106,VALID,1.10117,
2008-08-03, 08:29:04,VALID,1005.52,VALID,0,VALID,75.4801,VALID,304.303,VALID,27.9127,VALID,111,VALID,1.425,
2008-08-03, 08:30:04,VALID,1005.6,VALID,0,VALID,76.7847,VALID,373.39,VALID,27.9127,VALID,88,VALID,1.10352,
2008-08-03, 08:31:04,VALID,1005.57,VALID,0,VALID,76.8915,VALID,404.162,VALID,28.0512,VALID,134,VALID,1.29805,
2008-08-03, 08:32:04,VALID,1005.58,VALID,0,VALID,76.0676,VALID,482.903,VALID,28.1076,VALID,108,VALID,0.969531,
2008-08-03, 08:33:04,VALID,1005.55,VALID,0,VALID,75.2818,VALID,339.802,VALID,28.2656,VALID,88,VALID,1.39258,
2008-08-03, 08:34:04,VALID,1005.55,VALID,0,VALID,74.5952,VALID,451.427,VALID,28.3025,VALID,104,VALID,2.64453,
2008-08-03, 08:35:04,VALID,1005.56,VALID,0,VALID,74.5723,VALID,521.218,VALID,28.3046,VALID,84,VALID,1.66211,
2008-08-03, 08:36:04,VALID,1005.54,VALID,0,VALID,74.0383,VALID,489.54,VALID,28.3436,VALID,89,VALID,2.01484,
2008-08-03, 08:37:04,VALID,1005.55,VALID,0,VALID,73.9239,VALID,446.902,VALID,28.322,VALID,119,VALID,2.92109,
2008-08-03, 08:38:04,VALID,1005.53,VALID,0,VALID,73.0694,VALID,402.755,VALID,28.2656,VALID,117,VALID,1.68047,
2008-08-03, 08:39:04,VALID,1005.53,VALID,0,VALID,75.0377,VALID,464.802,VALID,28.3025,VALID,116,VALID,1.63242,
2008-08-03, 08:40:04,VALID,1005.55,VALID,0,VALID,74.496,VALID,328.237,VALID,28.3046,VALID,117,VALID,0.955078,
2008-08-03, 08:41:04,VALID,1005.56,VALID,0,VALID,76.4643,VALID,616.149,VALID,28.322,VALID,129,VALID,1.33477,
2008-08-03, 08:42:04,VALID,1005.59,VALID,0,VALID,75.915,VALID,326.93,VALID,28.4801,VALID,108,VALID,1.59063,
2008-08-03, 08:43:04,VALID,1005.59,VALID,0,VALID,73.3669,VALID,386.262,VALID,28.4801,VALID,121,VALID,2.71289,
2008-08-03, 08:44:04,VALID,1005.62,VALID,0,VALID,72.7109,VALID,315.567,VALID,28.3805,VALID,109,VALID,1.79258,
2008-08-03, 08:45:04,VALID,1005.63,VALID,0,VALID,72.1005,VALID,312.449,VALID,28.3631,VALID,135,VALID,1.43359,
2008-08-03, 08:46:04,VALID,1005.65,VALID,0,VALID,72.6346,VALID,354.484,VALID,28.2851,VALID,100,VALID,1.975,
2008-08-03, 08:47:04,VALID,1005.67,VALID,0,VALID,72.7185,VALID,364.842,VALID,28.2462,VALID,101,VALID,1.45078,
2008-08-03, 08:48:04,VALID,1005.67,VALID,0,VALID,72.5201,VALID,470.735,VALID,28.2851,VALID,63,VALID,1.16953,
2008-08-03, 08:49:04,VALID,1005.69,VALID,0,VALID,72.1768,VALID,444.086,VALID,28.4411,VALID,110,VALID,0.851953,
2008-08-03, 08:50:04,VALID,1005.73,VALID,0,VALID,71.6276,VALID,390.788,VALID,28.4,VALID,89,VALID,1.67695,
2008-08-03, 08:51:04,VALID,1005.72,VALID,0,VALID,70.5824,VALID,427.895,VALID,28.3826,VALID,113,VALID,1.83438,
2008-08-03, 08:52:04,VALID,1005.78,VALID,0,VALID,72.1463,VALID,371.982,VALID,28.4021,VALID,86,VALID,1.67461,
2008-08-03, 08:53:04,VALID,1005.71,VALID,0,VALID,72.4438,VALID,526.447,VALID,28.3826,VALID,86,VALID,2.16719,
2008-08-03, 08:54:04,VALID,1005.72,VALID,0,VALID,73.2754,VALID,774.737,VALID,28.4368,VALID,130,VALID,1.66211,
2008-08-03, 08:55:04,VALID,1005.7,VALID,0,VALID,71.9632,VALID,625.904,VALID,28.5927,VALID,124,VALID,2.96328,
2008-08-03, 08:56:04,VALID,1005.72,VALID,0,VALID,73.4127,VALID,686.04,VALID,28.6924,VALID,127,VALID,1.75586,
2008-08-03, 08:57:04,VALID,1005.69,VALID,0,VALID,72.3599,VALID,708.064,VALID,28.87,VALID,108,VALID,1.22383,
2008-08-03, 08:58:04,VALID,1005.7,VALID,0,VALID,66.9511,VALID,358.507,VALID,28.8895,VALID,110,VALID,2.59922,
2008-08-03, 08:59:04,VALID,1005.67,VALID,0,VALID,70.1399,VALID,304.303,VALID,28.7725,VALID,103,VALID,1.41953,
2008-08-03, 09:00:04,VALID,1005.64,VALID,0,VALID,72.1997,VALID,810.94,VALID,28.753,VALID,100,VALID,1.75117,
2008-08-03, 09:01:04,VALID,1005.6,VALID,0,VALID,70.7273,VALID,598.953,VALID,28.792,VALID,121,VALID,2.39687,
2008-08-03, 09:02:04,VALID,1005.6,VALID,0,VALID,71.5055,VALID,498.692,VALID,28.8895,VALID,107,VALID,2.01563,
2008-08-03, 09:03:04,VALID,1005.59,VALID,0,VALID,71.7496,VALID,489.54,VALID,28.909,VALID,121,VALID,2.0293,
2008-08-03, 09:04:04,VALID,1005.6,VALID,0,VALID,70.3154,VALID,606.596,VALID,28.9285,VALID,134,VALID,3.03594,
2008-08-03, 09:05:04,VALID,1005.59,VALID,0,VALID,68.9422,VALID,659.19,VALID,28.8505,VALID,91,VALID,2.2707,
2008-08-03, 09:06:04,VALID,1005.61,VALID,0,VALID,69.2626,VALID,695.393,VALID,28.9285,VALID,118,VALID,3.12266,
2008-08-03, 09:07:04,VALID,1005.59,VALID,0,VALID,69.8424,VALID,662.509,VALID,28.9068,VALID,119,VALID,2.5957,
2008-08-03, 09:08:04,VALID,1005.59,VALID,0,VALID,70.0942,VALID,744.669,VALID,28.909,VALID,124,VALID,2.80352,
2008-08-03, 09:09:04,VALID,1005.62,VALID,0,VALID,71.0401,VALID,723.651,VALID,28.9653,VALID,117,VALID,1.88281,
2008-08-03, 09:10:04,VALID,1005.58,VALID,0,VALID,67.3401,VALID,738.333,VALID,29.0823,VALID,130,VALID,3.18633,
2008-08-03, 09:11:04,VALID,1005.57,VALID,0,VALID,67.6911,VALID,725.059,VALID,29.1603,VALID,73,VALID,1.40664,
2008-08-03, 09:12:04,VALID,1005.57,VALID,0,VALID,68.1946,VALID,726.869,VALID,29.2795,VALID,123,VALID,1.98516,
2008-08-03, 09:13:04,VALID,1005.56,VALID,0,VALID,68.4158,VALID,600.964,VALID,29.3748,VALID,135,VALID,1.80078,
2008-08-03, 09:14:04,VALID,1005.55,VALID,0,VALID,66.9968,VALID,697.505,VALID,29.3748,VALID,73,VALID,0.517578,
2008-08-03, 09:15:04,VALID,1005.52,VALID,0,VALID,67.0884,VALID,709.069,VALID,29.3943,VALID,104,VALID,2.08164,
2008-08-03, 09:16:04,VALID,1005.51,VALID,0,VALID,68.6294,VALID,689.661,VALID,29.4355,VALID,83,VALID,1.75508,
2008-08-03, 09:17:04,VALID,1005.55,VALID,0,VALID,68.6981,VALID,744.166,VALID,29.5308,VALID,95,VALID,1.21055,
2008-08-03, 09:18:04,VALID,1005.55,VALID,0,VALID,67.0121,VALID,750.3,VALID,29.6478,VALID,96,VALID,1.48516,
2008-08-03, 09:19:04,VALID,1005.55,VALID,0,VALID,68.4845,VALID,671.358,VALID,29.6478,VALID,128,VALID,1.57852,
2008-08-03, 09:20:04,VALID,1005.56,VALID,0,VALID,67.157,VALID,757.742,VALID,29.7475,VALID,79,VALID,1.29883,
2008-08-03, 09:21:04,VALID,1005.59,VALID,0,VALID,66.4552,VALID,767.295,VALID,29.6868,VALID,34,VALID,1.89297,
2008-08-03, 09:22:04,VALID,1005.57,VALID,0,VALID,66.3026,VALID,219.328,VALID,29.7085,VALID,30,VALID,0.8875,
2008-08-03, 09:23:04,VALID,1005.58,VALID,0,VALID,65.8144,VALID,853.779,VALID,29.7063,VALID,146,VALID,1.53594,
2008-08-03, 09:24:04,VALID,1005.56,VALID,0,VALID,65.0515,VALID,514.48,VALID,29.5698,VALID,119,VALID,3.15195,
2008-08-03, 09:25:04,VALID,1005.64,VALID,0,VALID,65.883,VALID,693.482,VALID,29.4723,VALID,110,VALID,2.40703,
2008-08-03, 09:26:04,VALID,1005.64,VALID,0,VALID,64.7387,VALID,351.166,VALID,29.4528,VALID,102,VALID,2.3707,
2008-08-03, 09:27:04,VALID,1005.64,VALID,0,VALID,65.4176,VALID,839.399,VALID,29.455,VALID,125,VALID,2.52656,
2008-08-03, 09:28:04,VALID,1005.65,VALID,0,VALID,65.7686,VALID,215.909,VALID,29.416,VALID,112,VALID,2.5207,
2008-08-03, 09:29:04,VALID,1005.64,VALID,0,VALID,66.7222,VALID,224.155,VALID,29.2015,VALID,127,VALID,1.9793,
2008-08-03, 09:30:04,VALID,1005.65,VALID,0,VALID,65.9059,VALID,252.715,VALID,29.1018,VALID,125,VALID,1.74844,
2008-08-03, 09:31:04,VALID,1005.63,VALID,0,VALID,66.295,VALID,872.886,VALID,29.104,VALID,118,VALID,2.42617,
2008-08-03, 09:32:04,VALID,1005.63,VALID,0,VALID,67.1265,VALID,848.047,VALID,29.0845,VALID,103,VALID,2.01875,
2008-08-03, 09:33:04,VALID,1005.61,VALID,0,VALID,67.7063,VALID,833.566,VALID,29.2383,VALID,35,VALID,1.76875,
2008-08-03, 09:34:04,VALID,1005.6,VALID,0,VALID,67.5995,VALID,842.416,VALID,29.572,VALID,122,VALID,0.428516,
2008-08-03, 09:35:04,VALID,1005.64,VALID,0,VALID,66.3789,VALID,825.521,VALID,29.8428,VALID,133,VALID,1.21133,
2008-08-03, 09:36:04,VALID,1005.59,VALID,0,VALID,65.8754,VALID,806.012,VALID,29.8645,VALID,164,VALID,1.86133,
2008-08-03, 09:37:04,VALID,1005.64,VALID,0,VALID,63.4341,VALID,791.028,VALID,29.9231,VALID,135,VALID,3.39805,
2008-08-03, 09:38:04,VALID,1005.64,VALID,0,VALID,63.129,VALID,810.336,VALID,29.9231,VALID,145,VALID,3.3918,
2008-08-03, 09:39:04,VALID,1005.69,VALID,0,VALID,61.0463,VALID,808.627,VALID,29.8623,VALID,127,VALID,3.05586,
2008-08-03, 09:40:04,VALID,1005.73,VALID,0,VALID,61.3362,VALID,810.537,VALID,29.8645,VALID,112,VALID,3.08516,
2008-08-03, 09:41:04,VALID,1005.71,VALID,0,VALID,60.7411,VALID,810.236,VALID,29.7475,VALID,130,VALID,4.22695,
2008-08-03, 09:42:04,VALID,1005.71,VALID,0,VALID,61.4659,VALID,819.789,VALID,29.767,VALID,122,VALID,2.86016,
2008-08-03, 09:43:04,VALID,1005.69,VALID,0,VALID,60.7793,VALID,822.303,VALID,29.767,VALID,113,VALID,3.1793,
2008-08-03, 09:44:04,VALID,1005.76,VALID,0,VALID,62.8391,VALID,849.455,VALID,29.806,VALID,112,VALID,2.57344,
2008-08-03, 09:45:04,VALID,1005.8,VALID,0,VALID,61.115,VALID,852.774,VALID,29.845,VALID,89,VALID,2.67227,
2008-08-03, 09:46:04,VALID,1005.8,VALID,0,VALID,62.328,VALID,852.975,VALID,29.8473,VALID,98,VALID,1.90078,
2008-08-03, 09:47:04,VALID,1005.78,VALID,0,VALID,61.1989,VALID,858.707,VALID,29.8255,VALID,134,VALID,2.90898,
2008-08-03, 09:48:04,VALID,1005.73,VALID,0,VALID,60.1614,VALID,634.954,VALID,29.9231,VALID,134,VALID,3.11719,
2008-08-03, 09:49:04,VALID,1005.76,VALID,0,VALID,60.1308,VALID,273.431,VALID,29.8255,VALID,98,VALID,3.69844,
2008-08-03, 09:50:04,VALID,1005.76,VALID,0,VALID,61.504,VALID,541.733,VALID,29.689,VALID,73,VALID,2.10625,
2008-08-03, 09:51:04,VALID,1005.73,VALID,0,VALID,61.3896,VALID,747.082,VALID,29.65,VALID,96,VALID,2.25195,
2008-08-03, 09:52:04,VALID,1005.74,VALID,0,VALID,62.5492,VALID,782.078,VALID,29.689,VALID,117,VALID,1.64805,
2008-08-03, 09:53:04,VALID,1005.78,VALID,0,VALID,60.7335,VALID,626.306,VALID,29.7865,VALID,88,VALID,3.40937,
2008-08-03, 09:54:04,VALID,1005.8,VALID,0,VALID,62.8315,VALID,689.258,VALID,29.7475,VALID,100,VALID,2.36484,
2008-08-03, 09:55:04,VALID,1005.82,VALID,0,VALID,62.4653,VALID,638.675,VALID,29.884,VALID,114,VALID,2.74336,
2008-08-03, 09:56:04,VALID,1005.76,VALID,0,VALID,62.2898,VALID,658.687,VALID,29.845,VALID,135,VALID,0.635156,
2008-08-03, 09:57:04,VALID,1005.8,VALID,0,VALID,64.5174,VALID,557.119,VALID,30.0424,VALID,130,VALID,1.47227,
2008-08-03, 09:58:04,VALID,1005.9,VALID,0,VALID,63.9987,VALID,313.756,VALID,30.0206,VALID,77,VALID,1.92461,
2008-08-03, 09:59:04,VALID,1005.83,VALID,0,VALID,62.1983,VALID,252.011,VALID,29.7475,VALID,90,VALID,1.96914,
2008-08-03, 10:00:04,VALID,1005.82,VALID,0,VALID,62.5873,VALID,207.059,VALID,29.5915,VALID,114,VALID,1.58867,
2008-08-03, 10:01:04,VALID,1005.8,VALID,0,VALID,64.8989,VALID,224.155,VALID,29.338,VALID,113,VALID,1.9957,
2008-08-03, 10:02:04,VALID,1005.78,VALID,0,VALID,66.8443,VALID,313.354,VALID,29.2188,VALID,103,VALID,1.35547,
2008-08-03, 10:03:04,VALID,1005.82,VALID,0,VALID,65.7228,VALID,340.607,VALID,29.2015,VALID,122,VALID,2.17148,
2008-08-03, 10:04:04,VALID,1005.78,VALID,0,VALID,67.1799,VALID,333.165,VALID,29.065,VALID,100,VALID,1.18867,
2008-08-03, 10:05:04,VALID,1005.82,VALID,0,VALID,67.8741,VALID,333.366,VALID,29.026,VALID,56,VALID,0.938281,
2008-08-03, 10:06:04,VALID,1005.81,VALID,0,VALID,68.1717,VALID,351.266,VALID,29.0455,VALID,93,VALID,1.6793,
2008-08-03, 10:07:04,VALID,1005.85,VALID,0,VALID,67.3935,VALID,360.317,VALID,28.987,VALID,102,VALID,2.39063,
2008-08-03, 10:08:04,VALID,1005.82,VALID,0,VALID,68.9269,VALID,396.117,VALID,28.948,VALID,106,VALID,1.13789,
2008-08-03, 10:09:04,VALID,1005.84,VALID,0,VALID,68.9803,VALID,326.729,VALID,28.948,VALID,110,VALID,2.00781,
2008-08-03, 10:10:04,VALID,1005.82,VALID,0,VALID,69.5144,VALID,396.821,VALID,28.909,VALID,117,VALID,1.17813,
2008-08-03, 10:11:04,VALID,1005.88,VALID,0,VALID,71.3987,VALID,413.414,VALID,28.9458,VALID,108,VALID,1.29023,
2008-08-03, 10:12:04,VALID,1005.86,VALID,0,VALID,69.4381,VALID,459.372,VALID,28.9675,VALID,123,VALID,2.11836,
2008-08-03, 10:13:04,VALID,1005.88,VALID,0,VALID,69.0795,VALID,492.457,VALID,28.8288,VALID,128,VALID,2.6625,
2008-08-03, 10:14:04,VALID,1005.86,VALID,0,VALID,68.3929,VALID,539.52,VALID,28.87,VALID,131,VALID,2.1082,
2008-08-03, 10:15:04,VALID,1005.89,VALID,0,VALID,66.0051,VALID,512.77,VALID,28.87,VALID,95,VALID,2.67695,